Weather History for Orlando International, FL

Change the Weather History Date:

Monday, September 9, 2013

  Actual Average Record
Temperature  
Mean Temperature 83 °F 82 °F  
Max Temperature 91 °F 90 °F 99 °F (1921)
Min Temperature 75 °F 74 °F 64 °F (1893)
Degree Days  
Heating Degree Days 0 0  
Month to date heating degree days 0 0  
Since 1 July heating degree days 0 0  
Cooling Degree Days 18 17  
Month to date cooling degree days 157 153  
Year to date cooling degree days 2648 2546  
Growing Degree Days 33 (Base 50)    
Moisture  
Dew Point 71 °F    
Average Humidity 69    
Maximum Humidity 94    
Minimum Humidity 44    
Precipitation  
Precipitation 0.00 in 0.21 in 2.73 in (1964)
Month to date precipitation 2.87 1.91  
Year to date precipitation 38.46 38.52  
Sea Level Pressure  
Sea Level Pressure 30.00 in    
Wind  
Wind Speed 8 mph (NE)    
Max Wind Speed 17 mph    
Max Gust Speed 23 mph    
Visibility 10 miles    
Events      
T = Trace of Precipitation, MM = Missing Value Source: NWS Daily Summary

Daily Weather History Graph

Daily Weather History Graph

Search for Another Location

Airport:

Trip Planner

Search our weather history database for the weather conditions in past years. The results will help you decide how hot, cold, wet, or windy it might be!

Date:

Astronomy

Sep. 09, 2013 Rise Set
Actual Time 7:07 AM EDT 7:36 PM EDT
Civil Twilight 6:43 AM EDT 8:00 PM EDT
Nautical Twilight 6:15 AM EDT 8:28 PM EDT
Astronomical Twilight 5:47 AM EDT 8:56 PM EDT
Moon 11:02 AM EDT (9/9) 10:19 PM EDT (9/9)
Length of Visible Light 13h 16m
Length of Day
12h 29m
Waxing Crescent, 19% of the Moon is Illuminated
Sep 9
Waxing Crescent
Sep 12
First Quarter
Sep 19
Full
Sep 26
Last Quarter
Oct 4
New

Hourly Weather History & Observations

Time (EDT) Temp. Heat Index Dew Point Humidity Pressure Visibility Wind Dir Wind Speed Gust Speed Precip Events Conditions
12:53 AM 78.1 °F - 72.0 °F 81% 29.98 in 10.0 mi NE 6.9 mph - N/A   Clear
1:53 AM 77.0 °F - 72.0 °F 84% 29.97 in 10.0 mi North 5.8 mph - N/A   Clear
2:53 AM 75.9 °F - 73.0 °F 91% 29.96 in 10.0 mi Calm Calm - N/A   Clear
3:53 AM 75.9 °F - 72.0 °F 87% 29.95 in 10.0 mi NNE 4.6 mph - N/A   Clear
4:53 AM 75.0 °F - 72.0 °F 90% 29.96 in 10.0 mi North 4.6 mph - N/A   Clear
5:53 AM 75.0 °F - 72.0 °F 90% 29.97 in 10.0 mi North 5.8 mph - N/A   Clear
6:53 AM 75.0 °F - 72.0 °F 90% 29.98 in 10.0 mi North 6.9 mph - N/A   Partly Cloudy
7:53 AM 75.9 °F - 72.0 °F 87% 30.00 in 10.0 mi North 5.8 mph - N/A   Partly Cloudy
8:53 AM 80.1 °F 84.2 °F 73.0 °F 79% 30.01 in 10.0 mi NE 8.1 mph - N/A   Partly Cloudy
9:53 AM 84.0 °F 90.2 °F 73.0 °F 69% 30.01 in 10.0 mi NE 10.4 mph - N/A   Partly Cloudy
10:53 AM 86.0 °F 92.2 °F 72.0 °F 63% 30.03 in 10.0 mi ENE 10.4 mph - N/A   Scattered Clouds
11:53 AM 87.1 °F 92.0 °F 70.0 °F 57% 30.03 in 10.0 mi ESE 9.2 mph - N/A   Scattered Clouds
12:53 PM 89.1 °F 92.9 °F 68.0 °F 50% 30.02 in 10.0 mi ENE 6.9 mph - N/A   Scattered Clouds
1:53 PM 88.0 °F 91.4 °F 68.0 °F 51% 30.01 in 10.0 mi East 3.5 mph - N/A   Scattered Clouds
2:53 PM 90.0 °F 91.7 °F 64.9 °F 43% 29.99 in 10.0 mi East 8.1 mph - N/A   Scattered Clouds
3:53 PM 90.0 °F 93.6 °F 68.0 °F 48% 29.99 in 10.0 mi East 13.8 mph 18.4 mph N/A   Scattered Clouds
4:53 PM 89.1 °F 94.1 °F 70.0 °F 53% 29.99 in 10.0 mi NE 17.3 mph - N/A   Scattered Clouds
5:53 PM 87.1 °F 91.3 °F 69.1 °F 55% 29.99 in 10.0 mi ENE 13.8 mph - N/A   Scattered Clouds
6:53 PM 84.0 °F 87.8 °F 69.1 °F 61% 29.99 in 10.0 mi ENE 15.0 mph - N/A   Scattered Clouds
7:53 PM 81.0 °F 85.2 °F 72.0 °F 74% 30.01 in 10.0 mi ENE 11.5 mph - N/A   Partly Cloudy
8:53 PM 80.1 °F 83.8 °F 72.0 °F 76% 30.03 in 10.0 mi NE 11.5 mph - N/A   Partly Cloudy
9:53 PM 78.1 °F - 73.0 °F 84% 30.04 in 10.0 mi ENE 8.1 mph - N/A   Partly Cloudy
10:53 PM 78.1 °F - 73.0 °F 84% 30.06 in 10.0 mi ENE 5.8 mph - N/A   Clear
11:53 PM 78.1 °F - 73.0 °F 84% 30.05 in 10.0 mi ENE 8.1 mph - N/A   Partly Cloudy